Location: Bjelajci
(45.0103°N, 16.1758°E)
Time: 19:50:16
(UTC+00:00)

Cosmos 1980 Rocket - Pass Details

Date: 14 July 2020
Orbit: 828 x 851 km, 71.0° (Epoch: 05 August)

Event Time Altitude Azimuth Distance (km) Brightness Sun altitude
Rises 01:41:21 0° 333° (NNW) 3,428 5.7 -14.0°
Reaches altitude 10° 01:43:49 10° 332° (NNW) 2,487 4.9 -13.8°
Maximum altitude 01:49:32 79° 247° (WSW) 870 2.2 -13.1°
Drops below altitude 10° 01:55:11 10° 161° (SSE) 2,462 4.3 -12.5°
Sets 01:57:37 0° 160° (SSE) 3,389 5.1 -12.2°
